This is the latest recevied weather packets stored in our database for station/object KP4FJC. If no packets are shown the sender has not sent any weather packets the latest 10 day(s).
| Time | Temp. | Humidity | Pressure | Rain* | Wind** | Luminosity | Snow |
|---|---|---|---|---|---|---|---|
| 1777763964 | 27.78° C | 71% | 1016.9 hPa | 0 mm | - | 0 W/m² | - |
| 1777763661 | 27.78° C | 71% | 1017.1 hPa | 0 mm | - | 0 W/m² | - |
| 1777763360 | 27.78° C | 71% | 1016.9 hPa | 0 mm | - | 0 W/m² | - |
| 1777763057 | 27.78° C | 71% | 1016.8 hPa | 0 mm | - | 0 W/m² | - |
| 1777762755 | 28.33° C | 70% | 1016.9 hPa | 0 mm | - | 0 W/m² | - |
| 1777762451 | 28.33° C | 70% | 1016.7 hPa | 0 mm | - | 1 W/m² | - |
| 1777762148 | 28.33° C | 69% | 1016.6 hPa | 0 mm | - | 3 W/m² | - |
| 1777761843 | 28.33° C | 68% | 1016.7 hPa | 0 mm | - | 5 W/m² | - |
| 1777761541 | 28.89° C | 67% | 1016.7 hPa | 0 mm | - | 9 W/m² | - |
| 1777761238 | 28.89° C | 66% | 1016.7 hPa | 0 mm | - | 14 W/m² | - |
| 1777760936 | 29.44° C | 65% | 1016.5 hPa | 0 mm | - | 18 W/m² | - |
| 1777760628 | 29.44° C | 65% | 1016.5 hPa | 0 mm | - | 23 W/m² | - |
| 1777760323 | 29.44° C | 64% | 1016.6 hPa | 0 mm | - | 28 W/m² | - |
| 1777760020 | 29.44° C | 62% | 1016.4 hPa | 0 mm | - | 33 W/m² | - |
| 1777759717 | 29.44° C | 62% | 1016.4 hPa | 0 mm | - | 40 W/m² | - |
| 1777759413 | 30° C | 64% | 1016.7 hPa | 0 mm | - | 49 W/m² | - |
| 1777759110 | 30° C | 63% | 1016.5 hPa | 0 mm | - | 63 W/m² | - |
| 1777758808 | 30° C | 63% | 1016.4 hPa | 0 mm | - | 74 W/m² | - |
| 1777758504 | 30° C | 62% | 1016.2 hPa | 0 mm | - | 85 W/m² | - |
| 1777758200 | 30° C | 62% | 1016.1 hPa | 0 mm | - | 94 W/m² | - |
| 1777757898 | 30° C | 64% | 1016 hPa | 0 mm | - | 105 W/m² | - |
| 1777757595 | 30° C | 62% | 1015.9 hPa | 0 mm | - | 115 W/m² | - |
| 1777757294 | 30.56° C | 62% | 1015.7 hPa | 0 mm | - | 128 W/m² | - |
| 1777756992 | 30.56° C | 61% | 1015.4 hPa | 0 mm | - | 144 W/m² | - |
| 1777756688 | 30.56° C | 61% | 1015.6 hPa | 0 mm | - | 161 W/m² | - |
* Rain latest hour (hover to see other rain measurements)
** Current wind speed in m/s (hover to see current wind gust speed)